• In Hungary
  • List of Countries
  • For 7 days
  • Water Temperature
  • Satellite Maps
  • Weather Map
  • News
  • Weather Widgets
  • user-avatar
    Login

    Hourly Weather Negodyaiha

    Today, 23 April, Monday

    Time Temperature Precipitation Wind Pressure Humidity
    00:00 -2°C° 0 mm 2 mps 737 mmHg 78%
    01:00 -3°C° 0 mm 2 mps 738 mmHg 81%
    02:00 -3°C° 0 mm 2 mps 738 mmHg 83%
    03:00 -3°C° 0 mm 2 mps 739 mmHg 83%
    04:00 -3°C° 0 mm 2 mps 739 mmHg 82%
    05:00 -3°C° 0 mm 2 mps 739 mmHg 82%
    06:00 -2°C° 0 mm 2 mps 740 mmHg 72%
    07:00 0°C° 0 mm 3 mps 740 mmHg 62%
    08:00 +1°C° 0 mm 3 mps 740 mmHg 52%
    09:00 +2°C° 0 mm 3 mps 740 mmHg 48%
    10:00 +3°C° 0 mm 3 mps 740 mmHg 44%
    11:00 +4°C° 0 mm 3 mps 740 mmHg 39%
    12:00 +5°C° 0 mm 3 mps 740 mmHg 38%
    13:00 +7°C° 0 mm 3 mps 740 mmHg 38%
    14:00 +7°C° 0 mm 2 mps 740 mmHg 37%
    15:00 +7°C° 0 mm 2 mps 740 mmHg 38%
    16:00 +7°C° 0 mm 2 mps 739 mmHg 40%
    17:00 +7°C° 0 mm 2 mps 739 mmHg 41%
    18:00 +6°C° 0 mm 1 mps 739 mmHg 48%
    19:00 +4°C° 0 mm 1 mps 739 mmHg 55%
    20:00 +1°C° 0 mm 0 mps 739 mmHg 61%
    21:00 +1°C° 0 mm 0 mps 739 mmHg 63%
    22:00 0°C° 0 mm 0 mps 739 mmHg 64%
    23:00 +1°C° 0 mm 1 mps 739 mmHg 66%

    Tomorrow, 24 April, Tuesday

    Time Temperature Precipitation Wind Pressure Humidity
    00:00 +1°C° 0 mm 1 mps 739 mmHg 67%
    01:00 +1°C° 0 mm 1 mps 739 mmHg 68%
    02:00 0°C° 0 mm 1 mps 739 mmHg 69%
    03:00 0°C° 0 mm 1 mps 739 mmHg 68%
    04:00 0°C° 0 mm 1 mps 738 mmHg 68%
    05:00 -1°C° 0 mm 2 mps 738 mmHg 68%
    06:00 +2°C° 0 mm 2 mps 738 mmHg 62%
    07:00 +4°C° 0 mm 2 mps 737 mmHg 56%
    08:00 +5°C° 0 mm 2 mps 737 mmHg 50%
    09:00 +7°C° 0 mm 3 mps 737 mmHg 48%
    10:00 +8°C° 0 mm 3 mps 736 mmHg 46%
    11:00 +9°C° 0 mm 3 mps 736 mmHg 44%
    12:00 +10°C° 0 mm 3 mps 736 mmHg 45%
    13:00 +11°C° 0 mm 4 mps 735 mmHg 46%
    14:00 +11°C° 0 mm 4 mps 735 mmHg 47%
    15:00 +10°C° 0.1 mm 3 mps 734 mmHg 55%
    16:00 +9°C° 0.1 mm 3 mps 734 mmHg 62%
    17:00 +9°C° 0.1 mm 3 mps 734 mmHg 69%
    18:00 +8°C° 0.3 mm 3 mps 733 mmHg 75%
    19:00 +7°C° 0.3 mm 3 mps 733 mmHg 82%
    20:00 +5°C° 0.3 mm 3 mps 733 mmHg 88%
    21:00 +5°C° 0.1 mm 3 mps 733 mmHg 90%
    22:00 +6°C° 0.1 mm 2 mps 733 mmHg 92%
    23:00 +5°C° 0.1 mm 2 mps 732 mmHg 95%

    Day after tomorrow, 25 April, Wednesday

    Time Temperature Precipitation Wind Pressure Humidity
    00:00 +5°C° 0 mm 2 mps 732 mmHg 95%
    01:00 +5°C° 0 mm 2 mps 732 mmHg 96%
    02:00 +5°C° 0 mm 2 mps 732 mmHg 97%
    03:00 +5°C° 0.1 mm 2 mps 732 mmHg 97%
    04:00 +5°C° 0.1 mm 2 mps 732 mmHg 97%
    05:00 +6°C° 0.1 mm 2 mps 732 mmHg 96%
    06:00 +6°C° 0 mm 2 mps 732 mmHg 91%
    07:00 +7°C° 0 mm 3 mps 732 mmHg 87%
    08:00 +8°C° 0 mm 3 mps 732 mmHg 82%
    09:00 +9°C° 0 mm 3 mps 732 mmHg 78%
    10:00 +10°C° 0 mm 4 mps 731 mmHg 75%
    11:00 +10°C° 0 mm 4 mps 731 mmHg 72%
    12:00 +10°C° 0.1 mm 4 mps 731 mmHg 74%
    13:00 +9°C° 0.1 mm 5 mps 731 mmHg 75%
    14:00 +9°C° 0.1 mm 5 mps 730 mmHg 77%
    15:00 +9°C° 0.3 mm 5 mps 730 mmHg 74%
    16:00 +9°C° 0.3 mm 5 mps 730 mmHg 71%
    17:00 +10°C° 0.3 mm 5 mps 730 mmHg 68%
    18:00 +8°C° 0.1 mm 4 mps 730 mmHg 73%
    19:00 +8°C° 0.1 mm 3 mps 730 mmHg 77%
    20:00 +7°C° 0.1 mm 2 mps 730 mmHg 81%
    21:00 +7°C° 0 mm 2 mps 730 mmHg 83%
    22:00 +6°C° 0 mm 2 mps 730 mmHg 85%
    23:00 +6°C° 0 mm 2 mps 730 mmHg 86%

    26 April, Thursday

    Time Temperature Precipitation Wind Pressure Humidity
    00:00 +5°C° 0 mm 2 mps 730 mmHg 88%
    01:00 +5°C° 0 mm 2 mps 730 mmHg 91%
    02:00 +4°C° 0 mm 2 mps 730 mmHg 93%
    03:00 +4°C° 0 mm 2 mps 730 mmHg 93%
    04:00 +4°C° 0 mm 2 mps 730 mmHg 93%
    05:00 +3°C° 0 mm 3 mps 730 mmHg 93%
    06:00 +4°C° 0 mm 3 mps 730 mmHg 86%
    07:00 +5°C° 0 mm 4 mps 731 mmHg 78%
    08:00 +7°C° 0 mm 4 mps 731 mmHg 70%
    09:00 +8°C° 0 mm 4 mps 731 mmHg 67%
    10:00 +8°C° 0 mm 4 mps 731 mmHg 64%
    11:00 +10°C° 0 mm 4 mps 731 mmHg 61%
    12:00 +11°C° 0.1 mm 4 mps 731 mmHg 56%
    13:00 +12°C° 0.1 mm 4 mps 731 mmHg 50%
    14:00 +13°C° 0.1 mm 4 mps 732 mmHg 44%
    15:00 +12°C° 0.1 mm 4 mps 732 mmHg 47%
    16:00 +12°C° 0.1 mm 4 mps 732 mmHg 50%
    17:00 +11°C° 0.1 mm 4 mps 732 mmHg 53%
    18:00 +10°C° 0 mm 3 mps 732 mmHg 61%
    19:00 +8°C° 0 mm 3 mps 733 mmHg 68%
    20:00 +7°C° 0 mm 2 mps 733 mmHg 75%
    21:00 +7°C° 0 mm 2 mps 733 mmHg 76%
    22:00 +5°C° 0 mm 3 mps 733 mmHg 78%
    23:00 +5°C° 0 mm 3 mps 733 mmHg 79%

    27 April, Friday

    Time Temperature Precipitation Wind Pressure Humidity
    00:00 +5°C° 0.1 mm 3 mps 733 mmHg 82%
    01:00 +5°C° 0.1 mm 2 mps 733 mmHg 86%
    02:00 +5°C° 0.1 mm 2 mps 733 mmHg 89%
    03:00 +4°C° 1 mm 3 mps 734 mmHg 89%
    04:00 +4°C° 1 mm 3 mps 734 mmHg 89%
    05:00 +5°C° 1 mm 4 mps 734 mmHg 88%
    06:00 +5°C° 0.1 mm 4 mps 735 mmHg 82%
    07:00 +6°C° 0.1 mm 5 mps 736 mmHg 76%
    08:00 +7°C° 0.1 mm 5 mps 736 mmHg 70%
    09:00 +8°C° 0.1 mm 5 mps 737 mmHg 65%
    10:00 +9°C° 0.1 mm 5 mps 737 mmHg 60%
    11:00 +10°C° 0.1 mm 5 mps 738 mmHg 54%
    12:00 +10°C° 0.1 mm 5 mps 738 mmHg 51%
    13:00 +12°C° 0.1 mm 5 mps 738 mmHg 48%
    14:00 +12°C° 0.1 mm 5 mps 738 mmHg 45%
    15:00 +12°C° 0.2 mm 4 mps 738 mmHg 49%
    16:00 +12°C° 0.2 mm 4 mps 738 mmHg 53%
    17:00 +11°C° 0.2 mm 3 mps 739 mmHg 57%
    18:00 +10°C° 0.2 mm 3 mps 739 mmHg 65%
    19:00 +8°C° 0.2 mm 3 mps 739 mmHg 73%
    20:00 +7°C° 0.2 mm 2 mps 740 mmHg 81%
    21:00 +6°C° 0 mm 2 mps 740 mmHg 83%
    22:00 +6°C° 0 mm 2 mps 741 mmHg 85%
    23:00 +5°C° 0 mm 2 mps 741 mmHg 87%

    28 April, Saturday

    Time Temperature Precipitation Wind Pressure Humidity
    00:00 +5°C° 0 mm 2 mps 741 mmHg 90%
    01:00 +4°C° 0 mm 2 mps 742 mmHg 92%
    02:00 +4°C° 0 mm 2 mps 742 mmHg 94%
    03:00 +4°C° 0 mm 2 mps 743 mmHg 93%
    04:00 +4°C° 0 mm 2 mps 743 mmHg 93%
    05:00 +3°C° 0 mm 2 mps 743 mmHg 93%
    06:00 +5°C° 0 mm 2 mps 744 mmHg 85%
    07:00 +7°C° 0 mm 2 mps 744 mmHg 77%
    08:00 +9°C° 0 mm 2 mps 744 mmHg 69%
    09:00 +10°C° 0 mm 2 mps 744 mmHg 62%
    10:00 +11°C° 0 mm 3 mps 745 mmHg 55%
    11:00 +12°C° 0 mm 3 mps 745 mmHg 48%
    12:00 +13°C° 0 mm 3 mps 745 mmHg 46%
    13:00 +13°C° 0 mm 3 mps 744 mmHg 43%
    14:00 +14°C° 0 mm 3 mps 744 mmHg 40%
    15:00 +14°C° 0 mm 3 mps 744 mmHg 42%
    16:00 +14°C° 0 mm 2 mps 744 mmHg 43%
    17:00 +14°C° 0 mm 2 mps 744 mmHg 45%
    18:00 +12°C° 0 mm 2 mps 744 mmHg 50%
    19:00 +11°C° 0 mm 1 mps 744 mmHg 55%
    20:00 +9°C° 0 mm 1 mps 743 mmHg 61%
    21:00 +9°C° 0 mm 1 mps 743 mmHg 61%
    22:00 +9°C° 0 mm 1 mps 743 mmHg 62%
    23:00 +9°C° 0 mm 1 mps 743 mmHg 62%
    Show more